Location: Alpha Ridge Park
(39.3209°N, 76.9128°W)
Time: 23:07:16
(UTC-04:00)

S-56A Canister/Altair - Pass Details

Date: 24 May 2019
Orbit: 633 x 2499 km, 38.9° (Epoch: 25 June)

Event Time Altitude Azimuth Distance (km) Brightness Sun altitude
Rises 09:50:05 0° 279° (W) 5,188 11.3 44.7°
Reaches altitude 10° 09:54:27 10° 264° (W) 4,481 11.1 45.5°
Maximum altitude 10:02:47 21° 223° (SW) 4,073 11.2 47.1°
Drops below altitude 10° 10:12:16 10° 183° (S) 5,132 11.9 48.9°
Sets 10:17:55 0° 169° (S) 6,158 12.4 49.9°
